FW6531 Weather Reports


Display with metric or nautical units.
time (UTC)temp
F
wind
direction
speed
MPH
gust
MPH
rain 1hr
in
rain 24hr
in
rain mn
in
humidity
%
barometer
mb
20260507093512 47 306 5.0 9.0 0.01 0.31 0.10 85 1006.0
20260507093011 47 306 5.0 9.0 0.01 0.31 0.10 85 1005.8
20260507092511 47 336 4.0 8.0 0.01 0.31 0.10 85 1005.3
20260507092010 47 324 3.0 8.0 0.01 0.31 0.10 85 1005.1
20260507091512 47 355 3.0 11.0 0.01 0.31 0.10 85 1005.2
20260507091009 48 334 5.0 11.0 0.01 0.31 0.10 85 1005.5
20260507090509 48 326 4.0 10.0 0.01 0.31 0.10 84 1005.7
20260507090010 48 292 4.0 9.0 0.01 0.31 0.10 85 1005.6
20260507085506 48 317 4.0 11.0 0.01 0.31 0.10 84 1005.5
20260507085006 48 327 5.0 11.0 0.00 0.30 0.09 83 1005.5
20260507084504 48 326 4.0 12.0 0.00 0.30 0.09 83 1006.0
20260507084004 48 355 7.0 12.0 0.00 0.30 0.09 84 1005.9
20260507083503 48 329 3.0 13.0 0.00 0.30 0.09 84 1005.7
20260507083003 49 301 7.0 13.0 0.00 0.30 0.09 84 1005.6
20260507082502 49 325 6.0 12.0 0.00 0.30 0.09 85 1005.2
20260507082002 49 17 3.0 13.0 0.00 0.30 0.09 86 1005.0
20260507081501 49 300 6.0 14.0 0.00 0.30 0.09 86 1005.1
20260507081104 49 338 4.0 14.0 0.00 0.30 0.09 87 1005.0
20260507080559 49 314 4.0 11.0 0.00 0.30 0.09 88 1005.4
20260507080059 49 295 2.0 11.0 0.00 0.30 0.09 88 1005.4
20260507075557 49 283 4.0 11.0 0.00 0.30 0.09 89 1005.2
20260507075056 49 320 6.0 10.0 0.00 0.30 0.09 90 1005.2
20260507074557 49 321 6.0 12.0 0.00 0.30 0.09 90 1005.0
20260507074054 49 322 5.0 11.0 0.00 0.30 0.09 92 1004.9
20260507073554 49 259 5.0 11.0 0.00 0.30 0.09 92 1005.0
20260507073103 49 342 3.0 10.0 0.00 0.30 0.09 92 1005.1
20260507072553 49 316 4.0 10.0 0.00 0.30 0.09 93 1005.0
20260507072053 49 324 5.0 10.0 0.00 0.30 0.09 93 1004.7
20260507071551 49 284 3.0 9.0 0.00 0.30 0.09 93 1004.7
20260507071051 49 325 4.0 9.0 0.00 0.30 0.09 94 1004.7
20260507070552 49 315 3.0 8.0 0.00 0.30 0.09 94 1004.9
20260507070057 49 312 3.0 5.0 0.00 0.30 0.09 94 1004.6
20260507065549 50 303 2.0 5.0 0.00 0.30 0.09 94 1004.7
20260507065048 50 319 1.0 3.0 0.00 0.30 0.09 94 1004.8
20260507064553 50 319 0.0 3.0 0.00 0.30 0.09 94 1004.9
20260507064047 50 319 1.0 4.0 0.00 0.30 0.09 94 1004.2
20260507063547 50 313 1.0 4.0 0.00 0.30 0.09 94 1004.2
20260507063046 50 303 0.0 4.0 0.00 0.30 0.09 94 1004.4
20260507062546 50 301 1.0 4.0 0.00 0.30 0.09 94 1004.4
20260507062045 50 315 1.0 8.0 0.00 0.30 0.09 94 1004.0
20260507061545 50 329 1.0 8.0 0.00 0.30 0.09 94 1003.9
20260507061044 50 313 2.0 8.0 0.01 0.30 0.09 94 1004.1
20260507060545 50 296 3.0 8.0 0.01 0.30 0.09 94 1004.0
20260507060053 50 350 4.0 10.0 0.01 0.30 0.09 95 1004.1
20260507055543 50 315 4.0 10.0 0.01 0.30 0.09 95 1004.1
20260507055042 50 23 4.0 10.0 0.01 0.30 0.09 95 1003.7
20260507054543 50 355 3.0 13.0 0.01 0.30 0.09 95 1003.8
20260507054041 50 12 5.0 13.0 0.01 0.30 0.09 95 1004.0
20260507053541 50 298 2.0 10.0 0.01 0.30 0.09 95 1004.2
20260507053040 51 319 4.0 11.0 0.02 0.30 0.09 96 1004.1
20260507052540 51 319 5.0 13.0 0.05 0.30 0.09 96 1004.1
20260507052037 51 30 7.0 14.0 0.06 0.30 0.09 96 1004.0
20260507051537 52 348 6.0 14.0 0.07 0.30 0.09 96 1003.7
20260507051035 52 335 3.0 9.0 0.08 0.28 0.08 96 1004.0
20260507050535 52 340 3.0 12.0 0.08 0.28 0.08 96 1003.9
20260507050036 52 298 6.0 12.0 0.08 0.28 0.08 97 1004.0
20260507045535 52 315 5.0 11.0 0.08 0.28 0.08 97 1003.7
20260507045033 52 311 2.0 9.0 0.09 0.28 0.08 96 1003.8
20260507044532 52 316 2.0 5.0 0.09 0.28 0.08 96 1003.6
20260507044035 52 312 2.0 5.0 0.09 0.28 0.08 96 1003.5
20260507043533 52 341 2.0 5.0 0.09 0.28 0.08 96 1003.4
20260507043032 52 296 2.0 17.0 0.07 0.27 0.06 96 1003.5
20260507042531 52 334 8.0 17.0 0.05 0.25 0.04 97 1003.9
20260507042033 52 261 3.0 6.0 0.04 0.24 0.03 97 1003.5
20260507041529 52 247 3.0 6.0 0.03 0.23 0.02 97 1003.3
20260507041029 51 277 3.0 7.0 0.01 0.21 0.00 96 1003.6
20260507040527 51 236 3.0 7.0 0.01 0.21 0.00 96 1003.4
20260507040025 51 208 3.0 7.0 0.01 0.21 0.21 96 1003.2
20260507035531 51 192 2.0 7.0 0.01 0.21 0.21 96 1003.1
20260507035026 50 217 3.0 11.0 0.00 0.20 0.20 96 1003.0
20260507034524 51 158 4.0 11.0 0.00 0.20 0.20 96 1003.0
20260507034027 51 231 3.0 8.0 0.00 0.20 0.20 96 1003.1
20260507033524 51 164 3.0 6.0 0.01 0.20 0.20 96 1003.0
20260507033030 51 169 2.0 6.0 0.01 0.20 0.20 96 1003.0
20260507032523 51 217 2.0 7.0 0.01 0.20 0.20 96 1003.2
20260507032029 51 160 1.0 6.0 0.01 0.20 0.20 96 1003.1
20260507031529 51 260 2.0 7.0 0.01 0.20 0.20 96 1003.1
20260507031023 51 192 2.0 6.0 0.01 0.20 0.20 96 1003.1
20260507030522 51 162 2.0 8.0 0.01 0.20 0.20 96 1003.0
20260507030022 50 175 3.0 10.0 0.01 0.20 0.20 96 1003.3
20260507025521 51 183 5.0 10.0 0.01 0.20 0.20 96 1003.1
20260507025025 50 180 5.0 11.0 0.01 0.20 0.20 96 1003.2
20260507024522 50 173 4.0 14.0 0.01 0.20 0.20 96 1003.2
20260507024121 50 175 5.0 13.0 0.01 0.20 0.20 96 1003.1
20260507023519 50 163 3.0 11.0 0.00 0.19 0.19 96 1003.2
20260507023020 50 179 4.0 14.0 0.00 0.19 0.19 96 1003.3
20260507022520 50 150 5.0 13.0 0.00 0.19 0.19 96 1003.4
20260507022019 50 249 7.0 15.0 0.01 0.19 0.19 96 1003.5
20260507021518 50 182 6.0 15.0 0.01 0.19 0.19 96 1003.5
20260507021017 50 200 8.0 14.0 0.02 0.19 0.19 96 1003.5
20260507020517 50 207 7.0 15.0 0.02 0.19 0.19 96 1003.6
20260507020021 50 212 6.0 19.0 0.02 0.19 0.19 96 1003.6
20260507015515 50 158 8.0 19.0 0.02 0.19 0.19 96 1003.7
20260507015014 50 203 7.0 18.0 0.02 0.19 0.19 96 1003.8
20260507014513 50 176 8.0 18.0 0.02 0.19 0.19 96 1003.8
20260507014013 50 201 6.0 14.0 0.02 0.19 0.19 96 1004.0
20260507013513 50 200 7.0 14.0 0.02 0.19 0.19 96 1003.9
20260507013016 50 173 6.0 20.0 0.03 0.19 0.19 95 1003.8
20260507012513 50 157 8.0 20.0 0.03 0.19 0.19 95 1003.8
20260507012011 50 234 7.0 16.0 0.02 0.18 0.18 95 1003.9
20260507011524 50 233 7.0 13.0 0.02 0.18 0.18 95 1004.1
20260507011009 49 186 5.0 19.0 0.01 0.17 0.17 95 1004.0
20260507010510 50 172 5.0 19.0 0.01 0.17 0.17 95 1004.0
20260507010009 50 243 5.0 19.0 0.01 0.17 0.17 95 1003.9
20260507005508 50 138 6.0 16.0 0.01 0.17 0.17 95 1003.9
20260507005010 50 238 6.0 16.0 0.01 0.17 0.17 95 1004.0
20260507004507 50 153 7.0 18.0 0.01 0.17 0.17 95 1003.9
20260507004007 50 112 7.0 16.0 0.01 0.17 0.17 95 1004.0
20260507003506 50 170 6.0 16.0 0.01 0.17 0.17 95 1004.1
20260507003005 50 145 7.0 14.0 0.00 0.16 0.16 95 1004.0
20260507002505 50 180 7.0 17.0 0.00 0.16 0.16 95 1004.0
20260507002003 50 171 7.0 17.0 0.00 0.16 0.16 95 1004.2
20260507001502 50 169 5.0 15.0 0.00 0.16 0.16 95 1004.3
20260507001004 50 205 6.0 15.0 0.00 0.16 0.16 95 1004.3
20260507000501 50 124 5.0 18.0 0.00 0.16 0.16 95 1004.2
20260507000059 50 194 8.0 18.0 0.00 0.16 0.16 95 1004.3
20260506235559 50 156 7.0 15.0 0.00 0.16 0.16 95 1004.2
20260506235100 50 180 8.0 18.0 0.00 0.16 0.16 95 1004.3
20260506234607 50 164 8.0 18.0 0.00 0.16 0.16 95 1004.3
20260506234058 50 122 7.0 17.0 0.00 0.16 0.16 95 1004.2
20260506233557 50 214 6.0 18.0 0.00 0.16 0.16 95 1004.2
20260506233058 50 175 8.0 18.0 0.00 0.16 0.16 95 1004.4
20260506232556 50 182 8.0 18.0 0.00 0.16 0.16 95 1004.4
20260506232058 51 203 6.0 20.0 0.00 0.16 0.16 95 1004.6
20260506231556 51 169 5.0 16.0 0.00 0.16 0.16 94 1004.7
20260506231054 51 182 8.0 16.0 0.00 0.16 0.16 94 1004.6
20260506230553 51 209 6.0 16.0 0.00 0.16 0.16 95 1004.6
20260506230059 51 194 5.0 16.0 0.00 0.16 0.16 95 1004.6
20260506225552 51 141 6.0 16.0 0.00 0.16 0.16 95 1004.6
20260506225051 51 155 5.0 16.0 0.01 0.16 0.16 94 1004.6
20260506224551 51 127 7.0 18.0 0.01 0.16 0.16 94 1004.9
20260506224050 51 182 5.0 18.0 0.01 0.16 0.16 94 1004.8
20260506223550 51 171 6.0 19.0 0.01 0.16 0.16 94 1004.8
20260506223050 51 169 6.0 16.0 0.02 0.16 0.16 94 1004.8
20260506222552 51 209 5.0 24.0 0.03 0.16 0.16 94 1004.9
20260506222049 51 209 9.0 24.0 0.03 0.16 0.16 94 1004.9
20260506221548 51 200 7.0 19.0 0.04 0.16 0.16 94 1005.0
20260506221050 51 111 8.0 19.0 0.05 0.16 0.16 94 1004.9
20260506220547 51 176 7.0 19.0 0.05 0.16 0.16 94 1005.1
20260506220048 51 196 6.0 19.0 0.06 0.16 0.16 94 1005.1
20260506215545 51 156 5.0 19.0 0.06 0.16 0.16 94 1005.1
20260506215043 51 223 6.0 21.0 0.05 0.15 0.15 93 1005.2
20260506214547 51 202 8.0 16.0 0.06 0.15 0.15 93 1005.1
20260506214043 51 150 7.0 14.0 0.06 0.15 0.15 93 1005.2
20260506213541 51 182 4.0 16.0 0.05 0.14 0.14 93 1005.2
20260506213043 51 143 3.0 16.0 0.06 0.14 0.14 93 1005.4
20260506212541 51 183 6.0 16.0 0.05 0.13 0.13 93 1005.5
20260506212042 51 196 6.0 16.0 0.05 0.13 0.13 93 1005.7
20260506211541 51 117 6.0 14.0 0.04 0.12 0.12 93 1005.6
20260506211041 51 104 5.0 12.0 0.04 0.11 0.11 93 1005.6
20260506210542 51 140 4.0 19.0 0.05 0.11 0.11 92 1005.5
20260506210038 51 142 8.0 19.0 0.04 0.10 0.10 93 1005.5
20260506205538 51 250 6.0 18.0 0.04 0.10 0.10 92 1005.6
20260506205039 51 194 4.0 16.0 0.04 0.10 0.10 92 1005.6
20260506204542 52 176 6.0 12.0 0.04 0.09 0.09 92 1005.4
20260506204040 52 221 6.0 15.0 0.05 0.09 0.09 92 1005.6
20260506203538 52 186 6.0 17.0 0.06 0.09 0.09 92 1005.7
20260506203041 52 188 7.0 17.0 0.05 0.08 0.08 92 1005.5
20260506202537 52 180 6.0 16.0 0.05 0.08 0.08 92 1005.5
20260506202038 52 155 5.0 11.0 0.06 0.08 0.08 92 1005.4
20260506201540 53 193 4.0 13.0 0.07 0.08 0.08 92 1005.5
20260506201035 53 159 7.0 13.0 0.06 0.06 0.06 92 1006.0
20260506200539 53 90 6.0 10.0 0.06 0.06 0.06 92 1005.8
20260506200040 53 178 5.0 12.0 0.06 0.06 0.06 91 1005.8
20260506195536 53 208 5.0 12.0 0.06 0.06 0.06 92 1006.1
20260506195034 53 147 6.0 14.0 0.06 0.06 0.06 92 1006.1
20260506194535 53 150 5.0 15.0 0.05 0.05 0.05 92 1006.2
20260506194034 53 153 4.0 13.0 0.04 0.04 0.04 91 1006.3
20260506193534 53 137 6.0 13.0 0.03 0.03 0.03 91 1006.3
20260506193034 53 182 5.0 12.0 0.03 0.03 0.03 91 1006.2
20260506192533 52 171 2.0 12.0 0.03 0.03 0.03 90 1006.3
20260506192034 52 169 3.0 12.0 0.02 0.02 0.02 90 1006.1
20260506191534 52 222 4.0 13.0 0.01 0.01 0.01 89 1006.3
20260506191034 52 189 4.0 13.0 0.00 0.00 0.00 89 1006.3
20260506190533 52 234 4.0 15.0 0.00 0.00 0.00 89 1006.3
20260506190037 52 210 8.0 18.0 0.00 0.00 0.00 89 1005.9
20260506185533 52 190 8.0 18.0 0.00 0.00 0.00 88 1005.7
20260506185031 52 111 6.0 14.0 0.00 0.00 0.00 88 1005.7
20260506184538 52 248 8.0 19.0 0.00 0.00 0.00 88 1005.5
20260506184032 52 167 7.0 19.0 0.00 0.00 0.00 88 1005.6
20260506183533 52 159 8.0 19.0 0.00 0.00 0.00 87 1005.7
20260506183029 52 141 5.0 16.0 0.00 0.00 0.00 87 1005.8
20260506182529 52 242 6.0 13.0 0.00 0.00 0.00 87 1005.8
20260506182028 52 171 5.0 18.0 0.00 0.00 0.00 87 1005.8
20260506181528 52 187 6.0 18.0 0.00 0.00 0.00 87 1006.0
20260506181029 52 178 8.0 14.0 0.00 0.00 0.00 86 1006.1
20260506180529 52 165 4.0 16.0 0.00 0.00 0.00 86 1006.0
20260506180029 52 163 7.0 16.0 0.00 0.00 0.00 86 1006.0
20260506175526 52 192 4.0 15.0 0.00 0.00 0.00 86 1006.1
20260506175026 52 183 7.0 15.0 0.00 0.00 0.00 86 1006.1
20260506174526 52 209 5.0 15.0 0.00 0.00 0.00 86 1006.1
20260506174028 52 161 5.0 15.0 0.00 0.00 0.00 86 1006.2
20260506173525 52 144 6.0 15.0 0.00 0.00 0.00 87 1006.3
20260506173031 52 232 5.0 15.0 0.00 0.00 0.00 86 1006.4
20260506172523 52 145 6.0 15.0 0.00 0.00 0.00 86 1006.6
20260506172023 52 113 7.0 15.0 0.00 0.00 0.00 86 1006.6
20260506171526 52 156 5.0 15.0 0.00 0.00 0.00 86 1006.6
20260506171024 53 157 5.0 15.0 0.00 0.00 0.00 86 1006.7
20260506170522 53 144 6.0 13.0 0.00 0.00 0.00 85 1006.8
20260506170021 53 175 6.0 15.0 0.00 0.00 0.00 85 1007.0
20260506165520 53 153 7.0 16.0 0.00 0.00 0.00 85 1007.0
20260506165020 54 184 9.0 18.0 0.00 0.00 0.00 84 1007.0
20260506164520 54 92 7.0 15.0 0.00 0.00 0.00 84 1007.3
20260506164019 54 139 7.0 19.0 0.00 0.00 0.00 84 1007.3
20260506163521 54 155 8.0 15.0 0.00 0.00 0.00 84 1007.5
20260506163027 55 192 7.0 18.0 0.00 0.00 0.00 84 1007.5
20260506162521 55 173 5.0 18.0 0.00 0.00 0.00 84 1007.8
20260506162020 55 163 8.0 21.0 0.00 0.00 0.00 84 1007.9
20260506161519 55 192 6.0 21.0 0.00 0.00 0.00 84 1008.1
20260506161018 55 165 9.0 17.0 0.00 0.00 0.00 84 1008.0
20260506160519 55 151 6.0 18.0 0.00 0.00 0.00 84 1008.1
20260506160017 55 175 8.0 18.0 0.00 0.00 0.00 84 1008.3
20260506155517 55 172 4.0 20.0 0.00 0.00 0.00 85 1008.4
20260506155017 55 161 4.0 18.0 0.00 0.00 0.00 85 1008.4
20260506154517 55 164 8.0 18.0 0.00 0.00 0.00 85 1008.2
20260506154018 55 143 7.0 15.0 0.00 0.00 0.00 86 1008.3
20260506153516 55 184 9.0 20.0 0.00 0.00 0.00 85 1008.3
20260506153015 54 206 8.0 20.0 0.00 0.00 0.00 85 1008.5
20260506152515 54 184 6.0 19.0 0.00 0.00 0.00 85 1008.5
20260506152015 54 184 8.0 19.0 0.00 0.00 0.00 85 1008.4
20260506151617 55 221 7.0 19.0 0.00 0.00 0.00 84 1008.2
20260506151018 55 212 5.0 19.0 0.00 0.00 0.00 84 1008.5
20260506150514 55 177 8.0 21.0 0.00 0.00 0.00 83 1008.3
20260506150014 56 160 9.0 23.0 0.00 0.00 0.00 83 1008.1
20260506145514 56 186 8.0 23.0 0.00 0.00 0.00 84 1008.2
20260506145013 56 190 6.0 16.0 0.00 0.00 0.00 84 1007.9
20260506144512 55 194 7.0 20.0 0.00 0.00 0.00 84 1008.0
20260506144011 55 178 10.0 20.0 0.00 0.00 0.00 84 1007.7
20260506143511 55 155 8.0 18.0 0.00 0.00 0.00 84 1007.9
20260506143021 55 181 9.0 15.0 0.00 0.00 0.00 85 1008.0
20260506142514 55 134 7.0 14.0 0.00 0.00 0.00 85 1008.2
20260506142010 55 157 5.0 15.0 0.00 0.00 0.00 85 1008.2
20260506141509 55 215 6.0 17.0 0.00 0.00 0.00 85 1008.3
20260506141014 55 134 5.0 15.0 0.00 0.00 0.00 86 1008.4
20260506140510 54 182 7.0 15.0 0.00 0.00 0.00 86 1008.5
20260506140009 54 212 7.0 15.0 0.00 0.00 0.00 86 1008.6
20260506135509 54 145 8.0 12.0 0.00 0.00 0.00 86 1008.6
20260506135009 54 213 5.0 13.0 0.00 0.00 0.00 86 1008.5
20260506134508 54 244 8.0 13.0 0.00 0.00 0.00 86 1008.5
20260506134011 54 164 5.0 12.0 0.00 0.00 0.00 86 1008.5
20260506133511 54 273 4.0 13.0 0.00 0.00 0.00 85 1008.5
20260506133007 54 155 5.0 14.0 0.00 0.00 0.00 85 1008.5
20260506132513 54 135 5.0 15.0 0.00 0.00 0.00 86 1008.5
20260506132007 54 176 6.0 15.0 0.00 0.00 0.00 85 1008.5
20260506131507 54 250 3.0 15.0 0.00 0.00 0.00 85 1008.4
20260506131007 54 221 5.0 14.0 0.00 0.00 0.00 84 1008.4
20260506130507 54 167 5.0 14.0 0.00 0.00 0.00 84 1008.4
20260506130007 55 172 3.0 14.0 0.00 0.00 0.00 84 1008.5
20260506125506 55 233 4.0 14.0 0.00 0.00 0.00 84 1008.3
20260506125009 55 219 6.0 17.0 0.00 0.00 0.00 84 1008.3
20260506124505 55 288 3.0 17.0 0.00 0.00 0.00 85 1008.4
20260506124005 55 211 6.0 15.0 0.00 0.00 0.00 84 1008.4
20260506123505 55 190 4.0 13.0 0.00 0.00 0.00 85 1008.4
20260506123004 54 187 2.0 13.0 0.00 0.00 0.00 85 1008.6
20260506122504 54 209 5.0 9.0 0.00 0.00 0.00 86 1008.6
20260506122003 54 136 5.0 9.0 0.00 0.00 0.00 86 1008.6
20260506121502 54 167 4.0 11.0 0.00 0.00 0.00 86 1008.6
20260506121002 54 205 5.0 10.0 0.00 0.00 0.00 86 1008.7
20260506120502 54 186 6.0 11.0 0.00 0.00 0.00 86 1008.5
20260506120109 54 217 5.0 10.0 0.00 0.00 0.00 86 1008.6
20260506115559 54 159 5.0 10.0 0.00 0.00 0.00 86 1008.8
20260506115058 54 275 4.0 9.0 0.00 0.00 0.00 86 1008.8
20260506114558 54 141 3.0 9.0 0.00 0.00 0.00 86 1008.9
20260506114058 54 217 2.0 7.0 0.00 0.00 0.00 87 1009.0
20260506113558 54 228 3.0 6.0 0.00 0.00 0.00 87 1009.0
20260506113059 53 184 1.0 7.0 0.00 0.00 0.00 88 1008.9
20260506112557 53 180 3.0 6.0 0.00 0.00 0.00 88 1008.8
20260506112057 53 196 2.0 6.0 0.00 0.00 0.00 88 1009.0
20260506111557 53 200 2.0 8.0 0.00 0.00 0.00 89 1009.0
20260506111054 53 221 2.0 8.0 0.00 0.00 0.00 88 1008.8
20260506110555 52 192 4.0 12.0 0.00 0.00 0.00 89 1008.8
20260506110100 52 201 4.0 9.0 0.00 0.00 0.00 89 1008.9
20260506105554 52 238 4.0 10.0 0.00 0.00 0.00 88 1008.9
20260506105053 52 219 5.0 9.0 0.00 0.00 0.00 88 1008.7
20260506104556 52 152 4.0 10.0 0.00 0.00 0.00 88 1008.9
20260506104051 52 207 4.0 10.0 0.00 0.00 0.00 89 1008.7
20260506103551 51 189 4.0 11.0 0.00 0.00 0.00 89 1008.6
20260506103057 51 181 4.0 10.0 0.00 0.00 0.00 88 1008.5
20260506102550 51 246 4.0 12.0 0.00 0.00 0.00 88 1008.7
20260506102050 51 205 5.0 13.0 0.00 0.00 0.00 89 1008.7
20260506101558 51 223 5.0 13.0 0.00 0.00 0.00 89 1008.4
20260506101048 51 178 5.0 13.0 0.00 0.00 0.00 89 1008.5
20260506100547 51 173 4.0 13.0 0.00 0.00 0.00 89 1008.5
20260506095545 50 197 4.0 12.0 0.00 0.00 0.00 89 1008.5
20260506095045 50 202 5.0 12.0 0.00 0.00 0.00 88 1008.4
20260506094543 50 230 4.0 13.0 0.00 0.00 0.00 88 1008.3
20260506094040 50 188 4.0 11.0 0.00 0.00 0.00 88 1008.2